Location: Noverd
(38.0910°N, 121.6877°W)
Time: 15:22:41
(UTC+00:00)

Envisat - Pass Details

Date: 18 April 2026
Orbit: 761 x 762 km, 98.4° (Epoch: 15 May)

Event Time Altitude Azimuth Distance (km) Brightness Sun altitude
Rises 11:07:22 0° 7° (N) 3,230 6.9 -25.3°
Reaches altitude 10° 11:09:43 10° 3° (N) 2,301 6.0 -24.9°
Enters shadow 11:14:36 53° 289° (WNW) 931 3.2 -24.1°
